CW2927 Weather Reports


time (UTC)temp
C
wind
direction
speed
KPH
gust
KPH
rain 1hr
cm
rain 24hr
cm
rain mn
cm
humidity
%
barometer
mb
20260906200704 21 22 6.4 12.9 0.00 0.28 0.00 57 1015.0
20260906200205 21 17 8.0 12.9 0.00 0.28 0.00 57 1014.9
20260906194205 21 330 4.8 19.3 0.00 0.28 0.00 58 1015.1
20260906192704 21 3 6.4 11.3 0.00 0.28 0.00 61 1015.1
20260906192204 20 37 3.2 19.3 0.00 0.28 0.00 63 1015.2
20260906190705 19 27 3.2 4.8 0.00 0.28 0.00 67 1015.4
20260906190205 19 31 6.4 16.1 0.00 0.28 0.00 67 1015.5
20260906184704 19 0 4.8 9.7 0.00 0.28 0.00 67 1015.6
20260906184204 20 355 6.4 11.3 0.00 0.28 0.00 66 1015.6
20260906180704 20 10 4.8 9.7 0.00 0.28 0.00 66 1015.9
20260906180205 20 12 4.8 12.9 0.00 0.28 0.00 66 1016.0
20260906174704 20 321 4.8 11.3 0.00 0.28 0.00 69 1016.2
20260906174204 20 288 3.2 12.9 0.00 0.28 0.00 67 1016.2
20260906172204 20 331 4.8 16.1 0.00 0.28 0.00 68 1016.3
20260906164705 19 278 6.4 16.1 0.00 0.28 0.00 70 1016.5
20260906164205 19 324 8.0 14.5 0.00 0.28 0.00 69 1016.6
20260906162704 18 302 8.0 12.9 0.00 0.28 0.00 70 1016.8
20260906162204 18 313 6.4 19.3 0.00 0.28 0.00 68 1016.8
20260906160705 18 351 8.0 11.3 0.00 0.28 0.00 68 1016.8
20260906160204 18 328 3.2 12.9 0.00 0.28 0.00 68 1016.8
20260906154204 18 5 3.2 12.9 0.00 0.28 0.00 71 1017.1
20260906152704 18 306 4.8 11.3 0.00 0.28 0.00 73 1017.4
20260906152204 18 337 4.8 9.7 0.00 0.28 0.00 72 1017.4
20260906150705 18 309 3.2 4.8 0.00 0.28 0.00 76 1017.5
20260906150204 17 26 3.2 4.8 0.00 0.28 0.00 75 1017.6
20260906144704 17 7 3.2 4.8 0.00 0.28 0.00 77 1017.6
20260906144205 17 14 3.2 8.0 0.00 0.28 0.00 78 1017.6
20260906142705 16 357 3.2 4.8 0.00 0.28 0.00 79 1017.7
20260906142203 16 325 4.8 8.0 0.00 0.28 0.00 80 1017.8
20260906140704 16 309 3.2 8.0 0.00 0.28 0.00 82 1017.8
20260906134704 15 294 3.2 4.8 0.00 0.28 0.00 85 1017.8
20260906134204 15 287 3.2 9.7 0.00 0.28 0.00 86 1017.9
20260906132204 14 344 3.2 8.0 0.00 0.28 0.00 87 1017.8
20260906130703 13 24 3.2 4.8 0.00 0.28 0.00 90 1017.9
20260906130204 13 350 3.2 9.7 0.00 0.28 0.00 91 1018.0
20260906124704 13 50 4.8 8.0 0.00 0.28 0.00 91 1017.9
20260906122704 13 34 6.4 14.5 0.00 0.28 0.00 90 1017.9
20260906122204 12 64 3.2 12.9 0.00 0.28 0.00 90 1017.9
20260906120704 12 8 3.2 8.0 0.00 0.28 0.00 90 1017.7
20260906120204 12 8 4.8 9.7 0.00 0.28 0.00 90 1017.7
20260906114704 11 355 3.2 4.8 0.00 0.28 0.00 91 1017.6
20260906114204 11 13 3.2 9.7 0.00 0.28 0.00 92 1017.7
20260906112704 11 32 3.2 4.8 0.00 0.28 0.00 92 1017.4
20260906112204 11 5 3.2 4.8 0.00 0.28 0.00 92 1017.4
20260906110704 11 10 3.2 8.0 0.00 0.28 0.00 92 1017.3
20260906110204 11 11 3.2 4.8 0.00 0.28 0.00 92 1017.3
20260906104703 11 20 1.6 4.8 0.00 0.28 0.00 92 1017.1
20260906104204 11 20 3.2 4.8 0.00 0.28 0.00 92 1017.0
20260906102703 11 20 1.6 3.2 0.00 0.28 0.00 92 1016.8
20260906102203 11 20 3.2 4.8 0.00 0.28 0.00 92 1016.8
20260906100704 11 12 3.2 4.8 0.00 0.28 0.00 92 1016.7
20260906094703 11 19 1.6 4.8 0.00 0.28 0.00 91 1016.6
20260906094204 11 20 3.2 4.8 0.00 0.28 0.00 91 1016.6
20260906092704 11 28 3.2 4.8 0.00 0.28 0.00 91 1016.5
20260906092204 11 25 3.2 9.7 0.00 0.28 0.00 91 1016.4
20260906090703 11 46 3.2 8.0 0.00 0.28 0.00 91 1016.2
20260906090203 11 10 1.6 8.0 0.00 0.28 0.00 91 1016.2
20260906084204 11 50 3.2 11.3 0.00 0.28 0.00 90 1016.0
20260906082704 11 12 3.2 8.0 0.00 0.28 0.00 90 1016.0
20260906082204 11 12 4.8 11.3 0.00 0.28 0.00 89 1016.1
20260906080703 11 6 3.2 4.8 0.00 0.28 0.00 89 1016.0
20260906080204 11 0 6.4 11.3 0.00 0.28 0.00 89 1016.1
20260906074205 11 0 4.8 4.8 0.00 0.28 0.00 90 1016.1
20260906072706 11 28 3.2 4.8 0.00 0.28 0.00 90 1016.0
20260906072205 11 20 3.2 8.0 0.00 0.28 0.00 90 1015.9
20260906070205 11 11 4.8 8.0 0.00 0.28 0.00 91 1015.8
20260906064205 12 44 3.2 11.3 0.00 0.28 0.00 90 1015.7
20260906062705 12 37 3.2 4.8 0.00 0.28 0.00 90 1015.7
20260906062205 12 49 3.2 8.0 0.00 0.28 0.00 90 1015.7
20260906060705 12 44 3.2 11.3 0.00 0.28 0.00 91 1015.7
20260906060205 12 45 4.8 11.3 0.00 0.28 0.00 91 1015.6
20260906054706 12 36 4.8 8.0 0.00 0.28 0.00 91 1015.8
20260906054205 12 63 3.2 11.3 0.00 0.28 0.00 91 1015.8
20260906052705 12 47 3.2 11.3 0.00 0.28 0.00 90 1015.8
20260906052205 12 38 4.8 11.3 0.00 0.28 0.00 90 1015.8
20260906050705 12 53 3.2 8.0 0.00 0.28 0.00 90 1015.9
20260906050205 12 34 3.2 9.7 0.00 0.28 0.00 90 1015.8
20260906044705 12 38 3.2 8.0 0.00 0.28 0.00 90 1015.7
20260906044205 12 58 4.8 14.5 0.00 0.28 0.00 90 1015.7
20260906042705 12 49 4.8 11.3 0.00 0.28 0.00 89 1015.7
20260906040705 12 53 8.0 11.3 0.00 0.28 0.00 89 1015.6
20260906034205 12 63 8.0 19.3 0.00 0.28 0.28 89 1015.4
20260906032704 12 68 8.0 20.9 0.00 0.28 0.28 89 1015.4
20260906032205 12 51 8.0 14.5 0.00 0.28 0.28 89 1015.4
20260906030205 12 20 3.2 11.3 0.00 0.28 0.28 89 1015.4
20260906024705 12 52 4.8 12.9 0.00 0.28 0.28 90 1015.5
20260906022705 12 19 3.2 4.8 0.03 0.28 0.28 91 1015.7
20260906022205 12 19 3.2 4.8 0.03 0.28 0.28 91 1015.6
20260906020705 12 10 3.2 4.8 0.05 0.28 0.28 91 1015.6
20260906020205 12 7 3.2 4.8 0.08 0.28 0.28 91 1015.7
20260906014705 12 18 3.2 9.7 0.15 0.28 0.28 90 1015.8
20260906014205 12 40 4.8 12.9 0.20 0.28 0.28 90 1015.5
20260906012705 12 56 9.7 22.5 0.25 0.25 0.25 90 1015.1
20260906012204 12 68 8.0 22.5 0.25 0.25 0.25 90 1014.8
20260906010205 13 91 9.7 24.1 0.20 0.20 0.20 88 1015.3
20260906004206 13 76 4.8 12.9 0.08 0.08 0.08 88 1015.9
20260906002705 15 17 4.8 8.0 0.00 0.00 0.00 85 1016.0
20260906002205 15 14 4.8 14.5 0.00 0.00 0.00 83 1015.9
20260906000705 16 7 8.0 19.3 0.00 0.00 0.00 76 1015.6
20260906000205 16 17 6.4 14.5 0.00 0.00 0.00 74 1015.5
20260905234705 16 7 9.7 20.9 0.00 0.00 0.00 72 1015.4
20260905234205 16 50 4.8 20.9 0.00 0.00 0.00 71 1015.3
20260905232705 17 25 9.7 16.1 0.00 0.00 0.00 68 1015.0
20260905232205 17 29 8.0 19.3 0.00 0.00 0.00 68 1014.9
20260905230705 17 29 4.8 16.1 0.00 0.00 0.00 71 1014.4
20260905230205 17 39 9.7 24.1 0.00 0.00 0.00 70 1014.5
20260905224704 18 71 8.0 19.3 0.00 0.00 0.00 70 1014.4
20260905224204 18 66 6.4 16.1 0.00 0.00 0.00 70 1014.4
20260905222705 18 81 4.8 12.9 0.00 0.00 0.00 69 1014.3
20260905222204 18 43 8.0 16.1 0.00 0.00 0.00 68 1014.2
20260905220704 18 46 9.7 19.3 0.00 0.00 0.00 67 1014.0
20260905220205 18 44 6.4 19.3 0.00 0.00 0.00 67 1014.0
20260905214704 19 31 4.8 19.3 0.00 0.00 0.00 70 1013.6
20260905214204 19 50 9.7 24.1 0.00 0.00 0.00 70 1013.5
20260905212704 19 34 8.0 16.1 0.00 0.00 0.00 69 1013.3
20260905212205 20 57 4.8 19.3 0.00 0.00 0.00 69 1013.3
20260905210704 20 50 8.0 16.1 0.00 0.00 0.00 68 1013.0
20260905210204 20 46 8.0 20.9 0.00 0.00 0.00 69 1013.0
20260905204705 20 61 6.4 16.1 0.00 0.00 0.00 68 1013.0
20260905204205 20 61 14.5 24.1 0.00 0.00 0.00 66 1013.0
20260905202704 20 51 8.0 16.1 0.00 0.00 0.00 65 1012.8
20260905202204 20 60 6.4 19.3 0.00 0.00 0.00 66 1012.8